Stündliche Wetter Warri

Heute, 28 Oktober, Mittwoch

Zeit Temperatur Niederschläge Wind Luftdruck Luftfeuchtigkeit
00:00 +27°C° 0 mm 1 m/S 756 mmHg 93%
01:00 +27°C° 0 mm 1 m/S 756 mmHg 93%
02:00 +27°C° 0 mm 1 m/S 755 mmHg 94%
03:00 +26°C° 0 mm 1 m/S 755 mmHg 94%
04:00 +25°C° 0 mm 0 m/S 755 mmHg 94%
05:00 +25°C° 0 mm 0 m/S 756 mmHg 93%
06:00 +25°C° 0 mm 0 m/S 756 mmHg 92%
07:00 +29°C° 0.7 mm 1 m/S 756 mmHg 84%
08:00 +30°C° 0.7 mm 1 m/S 757 mmHg 77%
09:00 +32°C° 0.7 mm 1 m/S 757 mmHg 70%
10:00 +33°C° 1 mm 1 m/S 756 mmHg 64%
11:00 +34°C° 1 mm 1 m/S 756 mmHg 59%
12:00 +36°C° 1 mm 1 m/S 755 mmHg 54%
13:00 +34°C° 1.5 mm 1 m/S 755 mmHg 60%
14:00 +34°C° 1.5 mm 2 m/S 754 mmHg 65%
15:00 +31°C° 1.5 mm 3 m/S 754 mmHg 71%
16:00 +30°C° 0.6 mm 3 m/S 754 mmHg 76%
17:00 +29°C° 0.6 mm 3 m/S 755 mmHg 82%
18:00 +28°C° 0.6 mm 2 m/S 755 mmHg 87%
19:00 +28°C° 0 mm 2 m/S 756 mmHg 88%
20:00 +27°C° 0 mm 2 m/S 757 mmHg 90%
21:00 +27°C° 0 mm 2 m/S 757 mmHg 91%
22:00 +27°C° 0 mm 2 m/S 757 mmHg 91%
23:00 +27°C° 0 mm 1 m/S 757 mmHg 92%

Morgen, 29 Oktober, Donnerstag

Zeit Temperatur Niederschläge Wind Luftdruck Luftfeuchtigkeit
00:00 +27°C° 0 mm 1 m/S 756 mmHg 93%
01:00 +27°C° 0 mm 1 m/S 756 mmHg 93%
02:00 +27°C° 0 mm 1 m/S 756 mmHg 93%
03:00 +27°C° 0 mm 1 m/S 756 mmHg 94%
04:00 +27°C° 0 mm 1 m/S 756 mmHg 93%
05:00 +27°C° 0 mm 1 m/S 756 mmHg 93%
06:00 +25°C° 0 mm 0 m/S 757 mmHg 92%
07:00 +29°C° 0 mm 1 m/S 757 mmHg 84%
08:00 +30°C° 0 mm 1 m/S 757 mmHg 76%
09:00 +32°C° 0 mm 2 m/S 758 mmHg 68%
10:00 +32°C° 0.5 mm 2 m/S 757 mmHg 68%
11:00 +32°C° 0.5 mm 2 m/S 757 mmHg 67%
12:00 +34°C° 0.5 mm 3 m/S 756 mmHg 66%
13:00 +33°C° 1.1 mm 3 m/S 756 mmHg 69%
14:00 +33°C° 1.1 mm 3 m/S 755 mmHg 72%
15:00 +31°C° 1.1 mm 3 m/S 755 mmHg 75%
16:00 +30°C° 0.6 mm 2 m/S 755 mmHg 80%
17:00 +29°C° 0.6 mm 2 m/S 756 mmHg 84%
18:00 +28°C° 0.6 mm 2 m/S 756 mmHg 89%
19:00 +27°C° 0 mm 2 m/S 757 mmHg 90%
20:00 +27°C° 0 mm 2 m/S 757 mmHg 92%
21:00 +27°C° 0 mm 2 m/S 758 mmHg 93%
22:00 +27°C° 0 mm 1 m/S 757 mmHg 93%
23:00 +26°C° 0 mm 1 m/S 757 mmHg 94%

übermorgen, 30 Oktober, Freitag

Zeit Temperatur Niederschläge Wind Luftdruck Luftfeuchtigkeit
00:00 +26°C° 0 mm 1 m/S 757 mmHg 94%
01:00 +26°C° 0 mm 1 m/S 757 mmHg 95%
02:00 +26°C° 0 mm 1 m/S 756 mmHg 95%
03:00 +24°C° 0 mm 0 m/S 756 mmHg 96%
04:00 +24°C° 0 mm 0 m/S 756 mmHg 95%
05:00 +24°C° 0 mm 0 m/S 757 mmHg 94%
06:00 +24°C° 0 mm 0 m/S 757 mmHg 94%
07:00 +28°C° 0 mm 1 m/S 757 mmHg 86%
08:00 +30°C° 0 mm 1 m/S 758 mmHg 77%
09:00 +32°C° 0 mm 1 m/S 758 mmHg 69%
10:00 +33°C° 0 mm 1 m/S 757 mmHg 63%
11:00 +34°C° 0 mm 1 m/S 757 mmHg 57%
12:00 +35°C° 0 mm 1 m/S 756 mmHg 51%
13:00 +35°C° 0.8 mm 2 m/S 756 mmHg 57%
14:00 +34°C° 0.8 mm 2 m/S 755 mmHg 62%
15:00 +33°C° 0.8 mm 3 m/S 755 mmHg 68%
16:00 +31°C° 0.7 mm 3 m/S 756 mmHg 74%
17:00 +29°C° 0.7 mm 2 m/S 756 mmHg 81%
18:00 +28°C° 0.7 mm 2 m/S 756 mmHg 88%
19:00 +28°C° 0 mm 2 m/S 757 mmHg 89%
20:00 +27°C° 0 mm 1 m/S 757 mmHg 91%
21:00 +27°C° 0 mm 1 m/S 758 mmHg 92%
22:00 +27°C° 0 mm 1 m/S 758 mmHg 93%
23:00 +27°C° 0 mm 1 m/S 757 mmHg 94%

31 Oktober, Samstag

Zeit Temperatur Niederschläge Wind Luftdruck Luftfeuchtigkeit
00:00 +26°C° 0 mm 1 m/S 757 mmHg 95%
01:00 +26°C° 0 mm 1 m/S 757 mmHg 95%
02:00 +26°C° 0 mm 1 m/S 757 mmHg 96%
03:00 +26°C° 0 mm 1 m/S 756 mmHg 96%
04:00 +26°C° 0 mm 1 m/S 757 mmHg 95%
05:00 +26°C° 0 mm 1 m/S 757 mmHg 94%
06:00 +27°C° 0 mm 1 m/S 757 mmHg 93%
07:00 +28°C° 0 mm 1 m/S 758 mmHg 87%
08:00 +29°C° 0 mm 1 m/S 758 mmHg 81%
09:00 +31°C° 0 mm 1 m/S 758 mmHg 75%
10:00 +31°C° 0.5 mm 1 m/S 757 mmHg 72%
11:00 +32°C° 0.5 mm 2 m/S 757 mmHg 70%
12:00 +32°C° 0.5 mm 2 m/S 756 mmHg 67%
13:00 +32°C° 1.2 mm 2 m/S 756 mmHg 70%
14:00 +31°C° 1.2 mm 2 m/S 755 mmHg 72%
15:00 +31°C° 1.2 mm 2 m/S 755 mmHg 75%
16:00 +30°C° 0.7 mm 2 m/S 755 mmHg 79%
17:00 +29°C° 0.7 mm 2 m/S 756 mmHg 84%
18:00 +28°C° 0.7 mm 2 m/S 756 mmHg 88%
19:00 +28°C° 0.5 mm 2 m/S 757 mmHg 89%
20:00 +27°C° 0.5 mm 1 m/S 757 mmHg 90%
21:00 +27°C° 0.5 mm 1 m/S 758 mmHg 91%
22:00 +27°C° 0 mm 1 m/S 757 mmHg 91%
23:00 +27°C° 0 mm 1 m/S 757 mmHg 92%

1 November, Sonntag

Zeit Temperatur Niederschläge Wind Luftdruck Luftfeuchtigkeit
00:00 +26°C° 0 mm 1 m/S 757 mmHg 93%
01:00 +26°C° 0 mm 1 m/S 756 mmHg 93%
02:00 +26°C° 0 mm 1 m/S 756 mmHg 93%
03:00 +26°C° 0 mm 1 m/S 756 mmHg 94%
04:00 +26°C° 0 mm 1 m/S 756 mmHg 93%
05:00 +24°C° 0 mm 0 m/S 756 mmHg 93%
06:00 +24°C° 0 mm 0 m/S 756 mmHg 92%
07:00 +28°C° 0 mm 1 m/S 757 mmHg 84%
08:00 +30°C° 0 mm 1 m/S 757 mmHg 76%
09:00 +32°C° 0 mm 1 m/S 757 mmHg 68%
10:00 +32°C° 0.1 mm 1 m/S 757 mmHg 66%
11:00 +32°C° 0.1 mm 1 m/S 756 mmHg 63%
12:00 +34°C° 0.1 mm 2 m/S 756 mmHg 61%
13:00 +34°C° 0.2 mm 2 m/S 755 mmHg 60%
14:00 +33°C° 0.2 mm 1 m/S 755 mmHg 59%
15:00 +33°C° 0.2 mm 1 m/S 754 mmHg 59%
16:00 +32°C° 0.3 mm 1 m/S 755 mmHg 68%
17:00 +30°C° 0.3 mm 2 m/S 755 mmHg 77%
18:00 +28°C° 0.3 mm 2 m/S 755 mmHg 86%
19:00 +28°C° 0 mm 2 m/S 756 mmHg 87%
20:00 +27°C° 0 mm 2 m/S 756 mmHg 88%
21:00 +27°C° 0 mm 1 m/S 757 mmHg 89%
22:00 +27°C° 0 mm 1 m/S 757 mmHg 89%
23:00 +27°C° 0 mm 1 m/S 756 mmHg 90%

2 November, Montag

Zeit Temperatur Niederschläge Wind Luftdruck Luftfeuchtigkeit
00:00 +27°C° 0 mm 1 m/S 756 mmHg 91%
01:00 +27°C° 0 mm 1 m/S 756 mmHg 91%
02:00 +26°C° 0 mm 1 m/S 756 mmHg 92%
03:00 +26°C° 0 mm 1 m/S 755 mmHg 92%
04:00 +24°C° 0 mm 0 m/S 756 mmHg 92%
05:00 +25°C° 0 mm 0 m/S 756 mmHg 92%
06:00 +25°C° 0 mm 0 m/S 756 mmHg 91%
07:00 +27°C° 0 mm 0 m/S 757 mmHg 84%
08:00 +30°C° 0 mm 1 m/S 757 mmHg 76%
09:00 +32°C° 0 mm 1 m/S 757 mmHg 68%
10:00 +32°C° 0.6 mm 1 m/S 757 mmHg 68%
11:00 +33°C° 0.6 mm 1 m/S 756 mmHg 67%
12:00 +33°C° 0.6 mm 1 m/S 755 mmHg 66%
13:00 +32°C° 3.9 mm 2 m/S 755 mmHg 71%
14:00 +31°C° 3.9 mm 2 m/S 754 mmHg 76%
15:00 +30°C° 3.9 mm 3 m/S 754 mmHg 81%
16:00 +29°C° 1.9 mm 2 m/S 754 mmHg 84%
17:00 +28°C° 1.9 mm 2 m/S 755 mmHg 86%
18:00 +28°C° 1.9 mm 2 m/S 756 mmHg 88%
19:00 +27°C° 0.6 mm 2 m/S 756 mmHg 90%
20:00 +27°C° 0.6 mm 2 m/S 757 mmHg 91%
21:00 +27°C° 0.6 mm 2 m/S 757 mmHg 92%
22:00 +26°C° 0.1 mm 2 m/S 757 mmHg 92%
23:00 +26°C° 0.1 mm 1 m/S 757 mmHg 92%
Mehr zeigen

Wir brauchen deine Erlaubnis

Meteoprog und unser Service Anbieter werden persönliche Daten aufbewahren, so wie Cookies, Geräte Bezeichnung oder ähnliche Technologien von deinem Gerät und Prozess, so wie Persönliche Daten Inhalte und Werbungen, genauso wie social Media und den Verkehr zu analysieren.

  • Aufbewahrung und/oder Zugang zu deiner Geräte Informationen.

    Cookies, Geräte Bezeichnung oder andere Informationen, können aufbewahrt oder Zugang zu deinem Gerät erhalten, für den Grund, der oben angegeben wird.

  • Personalisierte Werbung und Inhalte, Messungen, Einblick in das Publikum und Produkt Entwicklung.

    Werbungen und Inhalte können personalisiert werden, basierend auf ein Profil. Mehr Daten können besser personalisierte Werbungen und Inhalte hinzufügen. Werbung und Inhalte können gezeigt und gemessen werden. Einblicke über das Publikum, welche die Werbung gesehen haben und den Inhalt, können abgeleitet werden. So wie Daten können genutzt werden, um es zu verbessern oder die Benutzer Erfahrung zu verbessern das System und die Software.

Wenn du “Ich stimme zu” klickst, erlaubst du uns, die Cookies zu benutzen die Geräte Bezeichnung, den Web oder ähnliche Technologien zu benutzen. Deine Settings, können in deinem Gerät bei deinem Browser geändert werden.

Für den bestimmten Zweck, berechtigten Interessen beruhen darauf, mehr als auf den Inhalt. Du kannst mehr darüber in unseren Privaten und Cookie Politik lesen.